Vorticity
-3 -5 -3 12 6 7 8 7 4 2 3 1 -4 -2 1 -1 -1 2 4 -6 -2 2
6 14 11 12 6 6 7 7 3 -0 -1 2 7 3 5 8 15 16 13 14 15 10
31 7 14 7 -3 7 12 14 4 -2 3 5 15 21 18 13 10 9 8 9 11 6
-6 7 10 18 27 32 38 26 22 26 19 13 13 12 2 2 13 11 5 6 10 11
7 7 4 -1 -3 2 -1 -5 11 6 -3 -3 3 7 9 9 12 10 13 4 2 -4
2 5 12 15 16 11 8 6 7 5 5 5 4 8 1 -1 3 2 -2 2 6 19
7 9 7 3 2 4 6 7 9 12 12 16 18 17 12 9 9 12 13 9 3 -1
6 5 6 3 4 4 5 4 5 11 17 16 27 10 8 13 7 14 17 10 10 13
19 14 16 22 14 3 10 14 15 17 12 3 -3 6 10 8 8 5 4 9 3 8
32 17 -11 6 8 15 7 8 6 6 2 6 8 5 4 8 7 8 4 -0 2 -2
2 -1 -1 13 19 5 21 11 6 -0 -2 1 4 9 5 7 4 3 2 -2 -0 1
9 11 15 8 11 -2 11 8 17 14 6 7 4 5 8 3 4 -2 -0 -1 1 2
6 7 8 9 9 9 14 21 6 0 7 8 7 13 6 5 1 -1 3 6 2 3
7 8 8 8 8 9 7 7 5 4 11 10 13 8 10 9 9 9 8 7 6 2
Height
5599 5603 5607 5611 5614 5617 5620 5624 5627 5631 5634 5636 5638 5642 5644 5647 5650 5652 5654 5658 5660 5663
5582 5586 5590 5594 5597 5601 5604 5608 5611 5614 5616 5618 5621 5623 5626 5628 5632 5635 5637 5639 5642 5646
5566 5569 5572 5576 5580 5584 5587 5592 5593 5596 5599 5601 5604 5606 5609 5611 5615 5617 5620 5623 5626 5628
5550 5554 5557 5560 5563 5567 5570 5573 5576 5578 5580 5583 5585 5588 5591 5595 5598 5601 5603 5606 5608 5611
5536 5538 5541 5544 5546 5549 5553 5556 5558 5561 5564 5566 5569 5572 5575 5578 5581 5585 5588 5589 5591 5592
5517 5520 5524 5527 5530 5533 5536 5538 5541 5543 5545 5548 5551 5554 5557 5561 5563 5564 5566 5570 5572 5575
5499 5502 5504 5507 5511 5514 5517 5520 5523 5526 5528 5531 5534 5537 5540 5543 5545 5548 5550 5553 5556 5558
5481 5484 5486 5489 5492 5495 5497 5500 5502 5505 5507 5510 5514 5518 5520 5522 5525 5528 5531 5533 5535 5537
5462 5464 5467 5469 5472 5475 5477 5479 5481 5484 5487 5490 5494 5497 5499 5501 5504 5506 5509 5512 5514 5516
5441 5444 5447 5449 5451 5454 5456 5458 5461 5463 5466 5469 5472 5474 5475 5477 5480 5484 5487 5490 5493 5494
5421 5423 5425 5427 5429 5430 5433 5436 5438 5441 5444 5447 5451 5451 5452 5454 5456 5461 5465 5468 5470 5472
5398 5400 5402 5404 5406 5408 5410 5413 5415 5418 5420 5424 5427 5426 5427 5428 5431 5436 5440 5443 5445 5448
5374 5376 5378 5380 5382 5384 5385 5388 5391 5394 5397 5400 5403 5402 5402 5402 5404 5410 5414 5418 5420 5421
5348 5349 5351 5353 5355 5357 5360 5363 5366 5369 5371 5374 5376 5377 5376 5376 5376 5380 5384 5390 5393 5395